Location: Suzhou
(31.3110°N, 120.6180°E)
Time: 13:29:48
(UTC+08:00)

FO-29 - Pass Details

Date: 19 April 2026
Orbit: 800 x 1320 km, 98.5° (Epoch: 15 May)

Event Time Altitude Azimuth Distance (km) Brightness Sun altitude
Rises 19:35:52 0° 18° (NNE) 4,158 12.9 -14.5°
Reaches altitude 10° 19:38:44 10° 22° (NNE) 3,126 12.2 -15.0°
Maximum altitude 19:45:41 54° 99° (E) 1,306 9.8 -16.4°
Drops below altitude 10° 19:51:47 10° 175° (S) 2,757 11.6 -17.6°
Sets 19:54:10 0° 180° (S) 3,633 12.2 -18.0°
